Location: Oak Ridge
(36.0100°N, 84.2700°W)
Time: 23:13:52
(UTC-05:00)

Tiangong 2 - Visible Passes

Search period start: 20 November 2017 00:00
Search period end: 30 November 2017 00:00
Orbit: 386 x 392 km, 42.8° (Epoch: 20 November)

Date Brightness Start Highest point End Pass type
(mag) Time Alt. Az. Time Alt. Az. Time Alt. Az.
24 Nov 4.0 06:38:30 10° SSW 06:40:53 20° SE 06:43:17 10° E visible
25 Nov 4.5 05:42:22 10° SSE 05:42:54 10° SE 05:43:25 10° SE visible
26 Nov 2.4 06:18:09 10° SW 06:21:09 39° SSE 06:24:10 10° ENE visible
27 Nov 3.4 05:22:54 21° SSE 05:23:05 21° SE 05:25:35 10° E visible
27 Nov 1.2 06:56:33 10° WSW 06:59:42 58° NNW 07:02:52 10° ENE visible
28 Nov 1.1 06:00:31 42° SW 06:01:28 82° SSE 06:04:40 10° ENE visible
29 Nov 4.1 05:05:33 16° E 05:05:33 16° E 05:06:20 10° ENE visible
29 Nov 1.9 06:37:53 15° W 06:40:10 36° NNW 06:43:10 10° NE visible
